RH
39 48 32 41 47 64 24 23 22 45 66 47 28 31 44 14 10 82 95 94 75 95 92 98 96 98 92 94 95 95 96 93 77 77 77 78 96 95 81 93 94 80 97
51 51 40 52 64 72 99 100 26 28 33 40 39 48 62 62 20 80 97 97 97 90 70 95 96 96 97 97 95 96 97 92 92 84 78 96 97 94 75 54 63 86 95
64 60 66 85 74 85 97 100 98 98 69 49 44 94 75 52 33 24 90 68 72 94 69 86 96 97 96 98 98 98 96 94 97 97 80 65 60 59 46 35 45 50 74
94 100 84 98 94 100 100 98 100 99 81 76 88 96 100 47 17 17 46 88 93 95 97 98 98 98 96 98 98 99 97 99 97 95 61 45 52 48 32 26 22 19 21
95 100 100 98 94 86 81 98 100 87 98 97 99 98 100 95 59 66 78 97 98 98 98 98 97 97 98 98 98 96 97 97 92 88 57 42 35 30 27 21 18 17 18
100 100 100 100 100 100 100 100 99 95 79 100 100 90 83 86 81 54 78 89 92 96 97 97 97 97 95 95 78 80 80 86 88 79 50 38 32 33 25 19 15 12 14
100 100 100 100 100 100 100 100 100 100 100 100 100 100 85 52 42 47 64 100 100 93 98 97 94 88 82 64 51 49 43 47 47 48 44 49 46 52 57 51 45 31 23
70 45 23 20 73 75 53 92 98 80 89 100 100 100 99 91 82 78 79 86 90 88 88 87 83 78 72 67 75 84 81 73 60 69 62 62 68 66 62 62 69 69 68
17 9 7 6 7 9 26 9 8 34 30 14 31 34 57 55 37 34 35 42 40 39 38 37 33 32 32 36 44 42 43 43 44 43 43 42 41 39 41 42 49 52 54
6 7 6 8 10 12 12 11 10 9 9 9 8 7 6 6 5 5 4 4 4 3 3 4 6 10 15 14 14 11 14 15 17 21 31 33 31 33 32 31 26 29 38
6 7 6 9 13 14 15 14 13 12 11 10 9 8 7 7 7 7 6 6 5 5 4 4 4 4 4 4 4 4 4 4 5 5 6 9 14 22 25 27 29 30 22
6 7 8 12 14 14 15 15 15 16 15 13 10 10 9 8 7 7 7 6 5 5 5 6 6 6 6 6 6 6 5 5 5 4 4 4 4 3 3 4 6 10 12
7 7 9 13 14 16 18 18 18 16 14 12 10 10 8 7 8 8 8 7 8 8 10 10 10 10 9 9 8 8 7 6 6 6 6 5 5 5 5 4 4 4 4
13 12 13 13 13 14 15 14 14 13 12 10 8 8 8 8 10 9 11 12 13 14 13 12 11 10 10 9 8 8 7 7 6 6 6 5 5 5 5 4 4 4 4
22 18 14 15 17 18 18 18 18 18 16 14 15 17 18 18 18 17 16 15 14 13 14 14 14 12 10 9 9 8 7 7 6 6 6 5 5 4 4 4 4 4 3
28 29 26 24 22 20 17 15 17 17 18 21 23 25 25 24 22 19 17 17 18 17 16 14 12 10 9 8 7 7 6 6 5 5 5 5 4 4 4 4 3 3 3
39 40 37 32 33 32 30 30 28 23 24 24 25 25 26 27 26 24 25 24 21 18 16 13 11 10 8 8 7 7 7 7 7 6 5 4 4 3 3 3 3 3 3
53 56 51 67 58 59 41 41 39 38 36 37 37 36 35 33 30 29 26 23 20 17 14 13 11 10 9 9 9 9 10 9 7 5 4 4 5 5 5 5 5 5 5
65 88 94 90 90 67 59 56 48 41 38 40 41 38 38 36 31 26 22 20 18 16 14 13 12 11 11 11 11 10 8 6 5 5 5 5 5 6 7 6 6 5 4
99 99 100 96 88 80 73 64 57 53 48 45 44 43 44 37 30 25 22 20 18 16 16 16 15 13 12 10 8 7 6 6 6 7 10 12 13 13 11 10 10 9 9
100 100 100 99 88 75 74 70 64 60 56 51 46 41 34 30 27 24 23 21 23 24 22 17 13 10 9 8 6 6 6 10 12 12 12 11 12 11 11 11 12 11 13
100 99 97 90 88 82 76 72 69 62 53 46 41 38 34 32 30 30 33 34 30 24 17 12 10 8 6 6 8 10 11 11 12 12 12 12 13 13 16 17 19 22 25
98 92 92 95 97 90 80 71 62 52 46 45 43 41 42 46 47 45 38 31 23 16 13 10 7 7 8 10 9 10 12 14 16 16 18 20 19 21 21 26 36 36 27
99 100 100 93 88 82 74 67 62 59 59 54 49 51 54 54 51 40 31 22 16 11 8 9 11 13 14 12 11 14 19 20 20 22 22 22 23 24 27 46 51 35 26
100 98 91 90 94 87 82 79 76 74 70 66 66 66 66 57 46 34 22 13 9 10 12 16 18 16 13 14 18 24 25 26 26 24 20 17 21 28 48 67 47 32 36
96 96 99 99 95 94 93 90 86 79 76 78 80 78 65 51 32 16 10 10 12 15 18 19 18 16 16 22 25 27 31 29 22 17 17 18 22 45 79 66 43 41 54
Wind_Speed
26 20 23 38 26 25 17 8 3 8 27 34 51 48 42 67 64 41 34 41 57 56 46 63 50 60 58 59 56 60 60 60 51 49 42 42 45 40 39 42 37 40 34
25 21 20 26 26 16 10 7 5 5 19 22 32 36 35 45 67 49 25 28 36 51 56 50 54 63 70 66 63 56 51 59 54 49 48 46 47 44 47 45 43 38 41
22 22 23 19 25 18 21 15 19 8 10 9 21 21 26 42 56 62 45 36 41 37 57 55 50 57 66 60 49 64 53 55 56 54 50 49 50 52 45 49 46 48 44
17 17 20 19 14 16 15 14 17 10 8 15 8 16 13 29 50 46 57 31 37 36 34 32 36 39 57 51 41 51 53 49 45 38 41 46 48 50 54 52 57 57 54
15 13 15 14 14 8 6 10 8 11 14 13 17 16 17 28 36 29 48 33 28 29 31 37 38 40 32 38 39 33 30 42 42 40 48 52 55 57 58 59 61 64 66
8 12 13 7 1 4 4 4 8 2 16 13 3 5 26 25 20 16 23 33 36 34 48 36 32 32 33 33 41 44 45 43 45 52 56 57 61 61 62 66 70 70 68
16 19 22 24 16 15 7 7 10 10 17 8 6 3 6 23 27 26 26 28 27 32 36 38 43 44 45 44 42 44 47 49 50 54 54 54 55 56 56 58 55 56 59
13 14 14 16 20 21 23 25 23 21 21 12 12 8 4 0 4 8 13 17 22 23 26 31 36 35 37 41 38 38 43 47 50 50 50 52 55 56 56 57 55 52 48
2 4 7 9 10 11 13 12 12 13 12 11 11 11 10 9 11 13 15 19 21 24 27 29 30 31 33 37 38 40 42 43 46 47 50 51 52 53 54 55 58 57 55
6 3 1 3 5 7 8 8 8 8 9 9 12 12 12 13 15 17 19 22 26 28 31 36 38 40 42 44 46 47 48 48 50 53 55 56 57 59 60 59 56 56 61
12 9 6 4 4 7 8 9 10 10 11 12 14 14 16 19 21 24 27 31 35 37 39 40 41 42 44 46 48 50 51 53 56 59 60 62 65 67 67 66 67 67 61
17 15 13 9 8 9 12 14 15 17 18 19 20 21 23 24 26 28 31 35 38 39 40 41 42 44 45 47 48 50 53 54 56 58 60 63 66 69 71 71 72 72 72
20 18 16 13 12 14 16 18 19 19 21 23 26 28 30 32 34 35 36 38 40 41 41 42 43 45 47 48 50 52 54 56 58 60 61 64 66 68 69 70 73 75 77
20 19 18 17 16 19 21 22 24 25 27 28 29 31 33 33 34 37 39 41 42 43 44 45 46 47 49 51 54 57 60 61 63 65 67 70 72 73 75 75 75 76 76
21 21 20 19 20 22 23 25 26 28 30 31 33 34 34 36 37 39 40 42 44 46 48 50 52 54 57 59 60 62 64 67 70 73 75 76 79 82 85 86 85 84 83
22 23 24 24 25 27 28 30 31 33 35 36 36 37 38 40 42 44 45 47 48 51 54 57 60 62 64 67 69 73 75 78 80 82 84 86 87 88 89 91 92 93 93
24 26 28 29 30 32 34 35 36 38 40 42 44 45 47 48 49 50 52 54 56 59 61 64 67 70 73 75 78 81 83 86 89 91 94 96 95 93 93 94 95 96 96
27 28 30 33 35 36 39 39 41 42 44 46 48 50 52 53 55 57 60 63 65 68 70 72 74 77 80 82 85 89 92 96 99 100 100 96 92 90 88 87 88 90 92
30 31 33 36 39 40 41 43 45 47 48 50 52 55 56 57 58 62 66 69 72 75 77 80 83 85 88 91 94 98 102 104 103 99 92 87 81 76 73 73 72 73 75
34 34 36 39 42 43 45 47 49 51 52 54 57 59 60 62 65 68 72 75 78 80 83 85 88 90 94 99 102 103 102 97 89 82 76 72 69 67 64 62 60 58 58
36 37 40 42 44 46 49 51 52 54 57 59 61 62 64 67 70 74 77 80 83 85 87 90 94 98 101 102 100 95 88 80 75 71 68 65 62 60 57 55 53 51 50
38 40 42 45 48 51 53 55 56 59 61 62 65 67 70 73 75 78 81 84 86 90 93 96 99 100 97 92 86 81 75 71 67 64 61 59 56 54 51 49 47 45 44
40 43 47 50 52 54 56 58 60 62 64 66 68 71 73 76 79 82 84 87 91 94 97 97 94 89 85 80 76 72 67 63 59 57 54 52 49 47 45 43 42 41 39
46 49 50 52 54 57 59 61 63 65 67 70 72 74 77 80 82 84 88 91 93 93 90 85 81 78 76 74 69 65 61 57 54 52 50 48 46 43 40 38 37 36 33
49 49 52 56 58 59 61 63 65 68 71 73 75 77 79 81 85 88 90 90 86 80 76 75 75 74 72 66 61 57 54 51 50 48 46 43 42 39 36 35 33 31 29
50 53 56 57 58 60 63 66 69 71 73 74 76 79 82 85 87 87 84 80 75 71 70 71 71 69 65 60 57 52 50 50 48 45 42 39 36 34 33 31 29 28 27
Wind_Direction
312 319 337 353 336 318 315 333 302 273 236 233 230 238 237 232 220 222 239 259 244 246 269 235 222 240 244 251 252 255 242 239 239 242 252 257 262 260 270 271 266 261 273
334 345 339 355 335 332 337 6 41 210 245 229 243 242 230 225 216 212 221 254 247 250 259 248 249 246 244 250 254 256 231 236 239 243 248 251 257 262 262 270 271 269 269
345 340 1 12 20 10 29 55 66 81 325 230 235 227 226 224 222 223 242 266 250 257 259 255 258 246 242 250 259 242 243 237 241 246 248 256 262 263 266 274 273 273 271
342 338 342 1 0 47 64 50 69 124 118 189 176 187 182 220 222 228 230 263 254 246 269 253 249 248 244 241 237 233 242 245 245 256 267 272 270 266 274 275 274 277 275
328 302 311 337 338 336 284 19 72 106 166 153 154 176 156 197 216 231 228 263 241 242 263 242 235 234 241 234 236 240 261 250 253 269 271 275 270 269 270 269 270 273 273
321 315 314 315 235 213 248 160 156 8 194 218 298 223 222 223 214 271 272 263 269 266 258 254 250 251 262 278 283 285 288 281 274 270 273 275 274 273 273 271 270 271 270
76 68 65 61 81 78 135 164 130 136 174 193 229 239 233 246 255 261 260 266 265 263 267 275 272 274 281 278 271 266 266 266 266 268 271 269 271 273 273 275 278 275 268
56 59 59 54 46 45 40 47 54 40 39 68 76 97 96 142 268 279 279 280 282 283 279 276 276 276 276 276 274 269 264 267 267 269 272 272 272 275 277 276 276 276 272
352 35 51 47 48 55 56 42 45 38 33 33 32 18 3 341 322 308 302 296 291 286 284 282 279 276 274 274 272 272 272 271 270 270 271 271 272 274 274 277 274 274 275
248 260 6 28 23 23 22 21 13 9 8 7 356 346 333 321 313 309 305 302 298 296 289 280 275 275 275 276 276 275 277 277 277 277 277 277 276 274 272 271 271 272 273
249 247 242 255 314 326 331 330 328 331 331 328 326 322 318 315 312 311 310 309 308 306 303 298 291 287 282 280 278 278 278 277 276 276 275 274 273 272 271 271 270 269 267
249 243 240 254 288 301 310 313 315 318 315 313 310 309 307 305 303 302 300 301 299 295 292 288 285 284 284 283 283 283 282 281 279 278 276 275 274 274 274 273 272 270 269
251 247 250 265 278 293 300 301 301 300 301 303 305 306 307 307 306 305 302 301 299 297 296 295 293 292 291 290 289 287 287 287 286 285 283 280 278 275 274 272 271 271 272
247 249 255 266 278 288 295 298 301 302 302 299 299 300 300 298 297 297 299 298 297 297 296 296 294 291 288 287 287 287 286 286 286 286 285 284 282 280 278 276 273 271 270
253 257 262 271 278 284 289 294 298 299 296 295 295 296 298 299 297 294 293 291 292 292 292 292 292 292 293 293 294 293 293 291 290 288 288 287 285 282 280 277 274 272 270
261 268 270 271 274 279 283 285 289 291 294 297 298 298 298 297 295 294 292 292 292 291 291 291 291 291 292 293 293 293 292 293 293 292 290 288 286 283 279 276 273 271 269
264 272 276 280 284 286 287 289 293 296 299 301 301 300 298 298 297 296 297 297 297 297 297 297 296 297 297 297 297 298 298 298 298 297 296 295 292 287 281 276 272 269 266
269 275 280 284 288 289 290 295 298 299 300 301 302 301 299 298 298 299 300 300 301 301 302 302 301 301 301 301 302 303 303 302 302 301 299 294 290 286 282 278 273 269 265
271 276 281 287 290 292 295 297 297 297 297 298 299 299 298 297 298 300 301 302 302 303 304 304 304 304 304 304 304 304 304 302 301 298 295 292 289 286 283 280 277 274 270
275 280 288 291 293 296 298 298 298 298 299 299 299 299 299 300 301 302 302 303 304 304 304 304 304 304 305 305 305 304 302 300 297 295 292 289 287 286 284 283 281 278 276
282 287 290 293 295 297 298 298 299 299 300 301 301 301 301 302 303 304 304 305 305 305 305 305 305 306 306 306 304 302 300 298 295 292 290 289 287 285 284 282 281 280 278
285 289 293 294 296 297 298 299 300 301 301 302 303 304 305 305 306 306 306 306 307 307 307 307 307 307 306 304 303 301 299 296 294 292 290 287 285 283 282 281 281 280 279
290 291 293 294 295 298 300 303 303 303 304 305 306 306 307 307 307 307 308 308 309 309 309 309 308 306 305 304 302 300 297 295 294 292 290 287 285 282 280 278 278 279 280
289 292 294 296 300 303 304 304 304 305 306 307 307 307 308 308 309 310 310 311 311 310 309 308 308 308 307 305 303 300 297 295 293 290 287 284 282 279 276 274 275 277 278
292 295 297 299 301 302 303 304 305 307 307 308 308 309 310 310 311 311 312 311 311 310 309 309 310 310 309 306 303 301 299 297 293 290 285 280 276 272 269 270 272 273 273
294 296 298 300 301 303 304 305 306 307 308 309 309 310 311 311 312 312 312 311 311 311 311 312 312 312 309 307 305 304 301 299 295 290 284 277 269 263 263 265 266 267 268